Regional Weather Roundup
Issued by NWS Jackson, KY

Home | Current Version | Previous Version | Graphics & Text | Print | Product List | Glossary On
Versions: 1 2 3 4 5 6 7 8 9 10 11 12 13 14 15 16 17 18 19 20 21 22 23 24 25 26 27 28 29 30 31 32 33 34 35 36 37 38 39 40 41 42 43 44 45 46 47 48 49 50
000
ASUS43 KJKL 271910
RWRJKL

EAST KENTUCKY HOURLY WEATHER ROUNDUP
NATIONAL WEATHER SERVICE JACKSON KY
200 PM EST SAT DEC 27 2014

NOTE: "FAIR" INDICATES FEW OR NO CLOUDS BELOW 12,000 FEET WITH
NO SIGNIFICANT WEATHER AND/OR OBSTRUCTIONS TO VISIBILITY.

* THESE REPORTS ARE NOT UNDER NWS QUALITY CONTROL AND MAY NOT
  REPORT WEATHER SUCH AS PRECIPITATION AND FOG.

KYZ079-080-083-085-087-088-110-112-115-119-120-272000
...EASTERN KENTUCKY...

CITY           SKY/WX    TMP DP  RH WIND       PRES   REMARKS
JACKSON        CLOUDY    59  30  33 CALM      30.16F
LONDON         CLOUDY    58  25  28 SW3       30.17F
SOMERSET*      CLOUDY    55  32  41 S6        30.17F
MONTICELLO*    PTSUNNY   61  35  37 SE6       30.17F
MIDDLESBORO*   PTSUNNY   55  35  47 SE5       30.21F
HARLAN APT*    CLOUDY    55  28  35 E8        30.19F
HAZARD APT*    CLOUDY    61  23  23 SW7G16    30.16F
BLACK MTN*       N/A     46  23  39 SW7         N/A
PIKEVILLE APT* CLOUDY    61  28  29 SW3       30.18F
BIG SANDY*     CLOUDY    59  28  30 SW5       30.16F
MOREHEAD APT*  MOCLDY    57  34  41 SW10      30.17F
$$

KYZ035-036-041-042-044-050-067-078-099-272000
...CENTRAL KENTUCKY...

CITY           SKY/WX    TMP DP  RH WIND       PRES   REMARKS
MT STERLING*   CLOUDY    54  37  54 W13       30.16F
FLEMING/MASON* CLOUDY    55  37  50 SW15G24   30.15S
DANVILLE*      CLOUDY    52  39  62 SW6       30.16F
RICHMOND*      CLOUDY    54  37  54 SW16G22   30.16F
LEXINGTON      CLOUDY    51  42  71 S14       30.15F
FRANKFORT      CLOUDY    50  43  77 S8        30.13F
$$

KYZ091>093-OHZ055-061-077-WVZ005-015-034-035-042-272000
...SOUTHERN OHIO/WEST VIRGINIA...

CITY           SKY/WX    TMP DP  RH WIND       PRES   REMARKS
COVINGTON      CLOUDY    48  43  81 SW10      30.12F
COLUMBUS       CLOUDY    52  36  54 SW15G22   30.09F
DAYTON         CLOUDY    50  42  74 SW15G23   30.09F
WILMINGTON     CLOUDY    51  38  60 SW15      30.10F
HUNTINGTON     PTSUNNY   59  28  30 SW8       30.14F
CHARLESTON     MOSUNNY   62  24  23 S6        30.15F
PINEVILLE*     PTSUNNY   63  31  30 MISG      30.23F
BECKLEY        PTSUNNY   57  13  17 SW6       30.19F
BLUEFIELD      PTSUNNY   61   8  12 W10       30.20F
$$

VAZ002-007-008-TNZ017-027-036-066-071-272000
...SOUTHWEST VIRGINIA/EAST TENNESSEE...

CITY           SKY/WX    TMP DP  RH WIND       PRES   REMARKS
WISE*          PTSUNNY   59  12  15 SW16      30.21F
JONESVILLE*    MOCLDY    52  36  54 CALM      30.24F
ABINGDON*      CLOUDY    59  28  30 SW6       30.22F
BRISTOL        CLOUDY    56  29  35 VRB3      30.23F
KNOXVILLE      CLOUDY    51  38  60 CALM      30.22
OAK RIDGE      PTSUNNY   53  37  54 VRB6      30.23F
CROSSVILLE     CLOUDY    54  32  43 S10G18    30.18F
NASHVILLE      RAIN      52  44  74 S17       30.16F
$$

...KEY TO REMARKS...
VSB - VISIBILITY IN MILES
WCI - WIND CHILL INDEX
HX  - HEAT INDEX

$$


USA.gov is the U.S. government's official web portal to all federal, state and local government web resources and services.